• In Czech Republic
  • List of Countries
  • For 7 days
  • Water Temperature
  • Satellite Maps
  • Weather Map
  • Weather Widgets
  • user-avatar
    Login

    Hourly Weather Satif

    Today, 19 November, Sunday

    Time Temperature Precipitation Wind Pressure Humidity
    00:00 +7°C° 0 mm 1 mps 673 mmHg 92%
    01:00 +6°C° 0 mm 1 mps 673 mmHg 91%
    02:00 +6°C° 0 mm 1 mps 672 mmHg 91%
    03:00 +6°C° 0 mm 1 mps 672 mmHg 91%
    04:00 +6°C° 0 mm 1 mps 672 mmHg 90%
    05:00 +5°C° 0 mm 1 mps 672 mmHg 90%
    06:00 +5°C° 0 mm 1 mps 672 mmHg 89%
    07:00 +7°C° 0 mm 1 mps 673 mmHg 82%
    08:00 +8°C° 0 mm 1 mps 674 mmHg 74%
    09:00 +10°C° 0 mm 1 mps 675 mmHg 67%
    10:00 +11°C° 0 mm 1 mps 675 mmHg 61%
    11:00 +11°C° 0 mm 1 mps 675 mmHg 55%
    12:00 +12°C° 0 mm 1 mps 675 mmHg 49%
    13:00 +13°C° 0 mm 2 mps 675 mmHg 48%
    14:00 +13°C° 0 mm 2 mps 674 mmHg 47%
    15:00 +13°C° 0 mm 2 mps 674 mmHg 46%
    16:00 +12°C° 0 mm 2 mps 674 mmHg 52%
    17:00 +10°C° 0 mm 1 mps 674 mmHg 59%
    18:00 +9°C° 0 mm 1 mps 674 mmHg 65%
    19:00 +9°C° 0 mm 1 mps 674 mmHg 69%
    20:00 +8°C° 0 mm 1 mps 674 mmHg 72%
    21:00 +6°C° 0 mm 0 mps 674 mmHg 75%
    22:00 +6°C° 0 mm 0 mps 674 mmHg 75%
    23:00 +6°C° 0 mm 0 mps 674 mmHg 76%

    Tomorrow, 20 November, Monday

    Time Temperature Precipitation Wind Pressure Humidity
    00:00 +5°C° 0 mm 0 mps 674 mmHg 76%
    01:00 +5°C° 0 mm 0 mps 674 mmHg 74%
    02:00 +6°C° 0 mm 1 mps 674 mmHg 73%
    03:00 +6°C° 0 mm 1 mps 674 mmHg 71%
    04:00 +5°C° 0 mm 1 mps 674 mmHg 69%
    05:00 +4°C° 0 mm 0 mps 674 mmHg 67%
    06:00 +4°C° 0 mm 0 mps 674 mmHg 65%
    07:00 +6°C° 0 mm 0 mps 675 mmHg 56%
    08:00 +8°C° 0 mm 0 mps 676 mmHg 47%
    09:00 +10°C° 0 mm 0 mps 677 mmHg 38%
    10:00 +11°C° 0 mm 0 mps 677 mmHg 34%
    11:00 +13°C° 0 mm 1 mps 677 mmHg 29%
    12:00 +15°C° 0 mm 1 mps 677 mmHg 25%
    13:00 +15°C° 0 mm 1 mps 677 mmHg 26%
    14:00 +15°C° 0 mm 1 mps 676 mmHg 27%
    15:00 +15°C° 0 mm 1 mps 676 mmHg 28%
    16:00 +13°C° 0 mm 1 mps 676 mmHg 35%
    17:00 +11°C° 0 mm 1 mps 676 mmHg 42%
    18:00 +10°C° 0 mm 1 mps 675 mmHg 49%
    19:00 +10°C° 0 mm 1 mps 676 mmHg 48%
    20:00 +9°C° 0 mm 1 mps 676 mmHg 47%
    21:00 +9°C° 0 mm 1 mps 676 mmHg 47%
    22:00 +9°C° 0 mm 1 mps 676 mmHg 47%
    23:00 +8°C° 0 mm 1 mps 675 mmHg 47%

    Day after tomorrow, 21 November, Tuesday

    Time Temperature Precipitation Wind Pressure Humidity
    00:00 +8°C° 0 mm 1 mps 675 mmHg 46%
    01:00 +8°C° 0 mm 1 mps 675 mmHg 46%
    02:00 +7°C° 0 mm 2 mps 675 mmHg 46%
    03:00 +7°C° 0 mm 2 mps 674 mmHg 46%
    04:00 +6°C° 0 mm 2 mps 674 mmHg 47%
    05:00 +6°C° 0 mm 2 mps 674 mmHg 48%
    06:00 +6°C° 0 mm 1 mps 674 mmHg 48%
    07:00 +7°C° 0 mm 2 mps 675 mmHg 44%
    08:00 +9°C° 0 mm 2 mps 675 mmHg 40%
    09:00 +12°C° 0 mm 2 mps 676 mmHg 35%
    10:00 +13°C° 0 mm 2 mps 676 mmHg 32%
    11:00 +14°C° 0 mm 2 mps 676 mmHg 29%
    12:00 +15°C° 0 mm 2 mps 676 mmHg 26%
    13:00 +15°C° 0 mm 2 mps 676 mmHg 26%
    14:00 +15°C° 0 mm 2 mps 675 mmHg 27%
    15:00 +15°C° 0 mm 2 mps 675 mmHg 28%
    16:00 +14°C° 0 mm 1 mps 675 mmHg 33%
    17:00 +12°C° 0 mm 1 mps 674 mmHg 38%
    18:00 +10°C° 0 mm 1 mps 674 mmHg 43%
    19:00 +10°C° 0 mm 1 mps 674 mmHg 43%
    20:00 +9°C° 0 mm 1 mps 674 mmHg 43%
    21:00 +9°C° 0 mm 1 mps 674 mmHg 42%
    22:00 +9°C° 0 mm 1 mps 673 mmHg 42%
    23:00 +8°C° 0 mm 1 mps 673 mmHg 41%

    22 November, Wednesday

    Time Temperature Precipitation Wind Pressure Humidity
    00:00 +8°C° 0 mm 1 mps 673 mmHg 41%
    01:00 +7°C° 0 mm 2 mps 673 mmHg 40%
    02:00 +6°C° 0 mm 2 mps 672 mmHg 40%
    03:00 +6°C° 0 mm 2 mps 672 mmHg 40%
    04:00 +6°C° 0 mm 2 mps 672 mmHg 40%
    05:00 +6°C° 0 mm 1 mps 672 mmHg 40%
    06:00 +6°C° 0 mm 1 mps 672 mmHg 40%
    07:00 +7°C° 0 mm 2 mps 672 mmHg 36%
    08:00 +9°C° 0 mm 2 mps 673 mmHg 32%
    09:00 +12°C° 0 mm 2 mps 674 mmHg 28%
    10:00 +13°C° 0 mm 2 mps 674 mmHg 25%
    11:00 +14°C° 0 mm 2 mps 674 mmHg 21%
    12:00 +16°C° 0 mm 2 mps 674 mmHg 18%
    13:00 +16°C° 0 mm 2 mps 674 mmHg 19%
    14:00 +16°C° 0 mm 2 mps 674 mmHg 20%
    15:00 +16°C° 0 mm 2 mps 673 mmHg 21%
    16:00 +14°C° 0 mm 2 mps 673 mmHg 25%
    17:00 +12°C° 0 mm 2 mps 673 mmHg 29%
    18:00 +10°C° 0 mm 2 mps 673 mmHg 32%
    19:00 +9°C° 0 mm 2 mps 673 mmHg 33%
    20:00 +9°C° 0 mm 2 mps 673 mmHg 34%
    21:00 +8°C° 0 mm 2 mps 673 mmHg 34%
    22:00 +8°C° 0 mm 2 mps 673 mmHg 35%
    23:00 +8°C° 0 mm 2 mps 673 mmHg 35%

    23 November, Thursday

    Time Temperature Precipitation Wind Pressure Humidity
    00:00 +7°C° 0 mm 2 mps 673 mmHg 35%
    01:00 +7°C° 0 mm 2 mps 673 mmHg 36%
    02:00 +7°C° 0 mm 2 mps 672 mmHg 37%
    03:00 +7°C° 0 mm 2 mps 672 mmHg 38%
    04:00 +7°C° 0 mm 2 mps 673 mmHg 38%
    05:00 +6°C° 0 mm 2 mps 673 mmHg 39%
    06:00 +6°C° 0 mm 2 mps 673 mmHg 39%
    07:00 +8°C° 0 mm 2 mps 674 mmHg 37%
    08:00 +9°C° 0 mm 2 mps 675 mmHg 35%
    09:00 +12°C° 0 mm 2 mps 675 mmHg 32%
    10:00 +13°C° 0 mm 2 mps 676 mmHg 30%
    11:00 +13°C° 0 mm 3 mps 676 mmHg 28%
    12:00 +16°C° 0 mm 3 mps 676 mmHg 25%
    13:00 +16°C° 0 mm 2 mps 676 mmHg 26%
    14:00 +16°C° 0 mm 2 mps 676 mmHg 27%
    15:00 +16°C° 0 mm 2 mps 676 mmHg 28%
    16:00 +14°C° 0 mm 2 mps 676 mmHg 32%
    17:00 +13°C° 0 mm 1 mps 676 mmHg 36%
    18:00 +11°C° 0 mm 1 mps 676 mmHg 39%
    19:00 +11°C° 0 mm 1 mps 676 mmHg 39%
    20:00 +11°C° 0 mm 1 mps 676 mmHg 39%
    21:00 +10°C° 0 mm 1 mps 676 mmHg 39%
    22:00 +10°C° 0 mm 1 mps 676 mmHg 39%
    23:00 +10°C° 0 mm 1 mps 676 mmHg 39%

    24 November, Friday

    Time Temperature Precipitation Wind Pressure Humidity
    00:00 +8°C° 0 mm 2 mps 675 mmHg 40%
    01:00 +8°C° 0 mm 2 mps 675 mmHg 40%
    02:00 +8°C° 0 mm 2 mps 675 mmHg 40%
    03:00 +8°C° 0 mm 1 mps 675 mmHg 41%
    04:00 +8°C° 0 mm 1 mps 675 mmHg 41%
    05:00 +8°C° 0 mm 1 mps 675 mmHg 41%
    06:00 +8°C° 0 mm 1 mps 675 mmHg 41%
    07:00 +9°C° 0 mm 2 mps 676 mmHg 38%
    08:00 +12°C° 0 mm 2 mps 677 mmHg 34%
    09:00 +14°C° 0 mm 2 mps 678 mmHg 31%
    10:00 +15°C° 0 mm 2 mps 678 mmHg 28%
    11:00 +16°C° 0 mm 2 mps 678 mmHg 26%
    12:00 +17°C° 0 mm 2 mps 678 mmHg 23%
    13:00 +17°C° 0 mm 2 mps 678 mmHg 24%
    14:00 +17°C° 0 mm 2 mps 678 mmHg 25%
    15:00 +17°C° 0 mm 2 mps 677 mmHg 26%
    16:00 +16°C° 0 mm 1 mps 677 mmHg 31%
    17:00 +14°C° 0 mm 1 mps 677 mmHg 35%
    18:00 +12°C° 0 mm 1 mps 677 mmHg 39%
    19:00 +12°C° 0 mm 1 mps 677 mmHg 39%
    20:00 +12°C° 0 mm 1 mps 677 mmHg 38%
    21:00 +11°C° 0 mm 1 mps 677 mmHg 38%
    22:00 +10°C° 0 mm 2 mps 677 mmHg 38%
    23:00 +10°C° 0 mm 2 mps 677 mmHg 38%
    Show more